| time (UTC) | temp F | wind direction | speed MPH | gust MPH | rain 1hr in | rain 24hr in | rain mn in | humidity % | barometer mb |
| 20260505080353 | 78 | 241 | 4.0 | 11.0 | 0.00 | 0.00 | 0.00 | 65 | 1008.0 |
| 20260505075853 | 78 | 243 | 6.0 | 9.0 | 0.00 | 0.00 | 0.00 | 63 | 1008.0 |
| 20260505075353 | 79 | 239 | 3.0 | 9.0 | 0.00 | 0.00 | 0.00 | 63 | 1008.0 |
| 20260505074855 | 79 | 295 | 4.0 | 7.0 | 0.00 | 0.00 | 0.00 | 63 | 1008.0 |
| 20260505074354 | 79 | 316 | 6.0 | 8.0 | 0.00 | 0.00 | 0.00 | 63 | 1008.0 |
| 20260505073854 | 79 | 302 | 9.0 | 10.0 | 0.00 | 0.00 | 0.00 | 63 | 1008.0 |
| 20260505073353 | 78 | 256 | 4.0 | 9.0 | 0.00 | 0.00 | 0.00 | 64 | 1008.0 |
| 20260505072853 | 79 | 260 | 4.0 | 6.0 | 0.00 | 0.00 | 0.00 | 62 | 1008.0 |
| 20260505072355 | 78 | 267 | 7.0 | 10.0 | 0.00 | 0.00 | 0.00 | 64 | 1008.0 |
| 20260505071854 | 77 | 207 | 4.0 | 6.0 | 0.00 | 0.00 | 0.00 | 65 | 1008.0 |
| 20260505071353 | 78 | 225 | 4.0 | 8.0 | 0.00 | 0.00 | 0.00 | 64 | 1008.0 |
| 20260505070853 | 78 | 250 | 4.0 | 9.0 | 0.00 | 0.00 | 0.00 | 65 | 1008.0 |
| 20260505070353 | 77 | 308 | 5.0 | 7.0 | 0.00 | 0.00 | 0.00 | 66 | 1009.0 |
| 20260505065853 | 77 | 285 | 3.0 | 8.0 | 0.00 | 0.00 | 0.00 | 66 | 1009.0 |
| 20260505065355 | 77 | 242 | 5.0 | 5.0 | 0.00 | 0.00 | 0.00 | 65 | 1009.0 |
| 20260505064853 | 77 | 230 | 4.0 | 9.0 | 0.00 | 0.00 | 0.00 | 66 | 1009.0 |
| 20260505064353 | 77 | 292 | 4.0 | 8.0 | 0.00 | 0.00 | 0.00 | 66 | 1009.0 |
| 20260505063853 | 77 | 250 | 7.0 | 11.0 | 0.00 | 0.00 | 0.00 | 67 | 1009.0 |
| 20260505063353 | 77 | 241 | 4.0 | 6.0 | 0.00 | 0.00 | 0.00 | 66 | 1009.0 |
| 20260505062854 | 78 | 287 | 4.0 | 10.0 | 0.00 | 0.00 | 0.00 | 65 | 1009.0 |
| 20260505062353 | 78 | 242 | 3.0 | 9.0 | 0.00 | 0.00 | 0.00 | 65 | 1009.0 |
| 20260505061853 | 76 | 299 | 6.0 | 8.0 | 0.00 | 0.00 | 0.00 | 67 | 1009.0 |
| 20260505061353 | 77 | 272 | 6.0 | 8.0 | 0.00 | 0.00 | 0.00 | 66 | 1009.0 |
| 20260505060853 | 77 | 272 | 4.0 | 8.0 | 0.00 | 0.00 | 0.00 | 65 | 1009.0 |
| 20260505060353 | 77 | 288 | 5.0 | 8.0 | 0.00 | 0.00 | 0.00 | 65 | 1009.0 |
| 20260505055853 | 78 | 244 | 6.0 | 11.0 | 0.00 | 0.00 | 0.00 | 64 | 1009.0 |
| 20260505055354 | 78 | 254 | 5.0 | 8.0 | 0.00 | 0.00 | 0.00 | 64 | 1010.0 |
| 20260505054853 | 78 | 309 | 5.0 | 9.0 | 0.00 | 0.00 | 0.00 | 62 | 1009.0 |
| 20260505054353 | 77 | 275 | 3.0 | 9.0 | 0.00 | 0.00 | 0.00 | 64 | 1009.0 |
| 20260505053855 | 76 | 227 | 2.0 | 9.0 | 0.00 | 0.00 | 0.00 | 66 | 1009.0 |
| 20260505053353 | 77 | 258 | 7.0 | 13.0 | 0.00 | 0.00 | 0.00 | 65 | 1010.0 |
| 20260505052853 | 77 | 264 | 5.0 | 8.0 | 0.00 | 0.00 | 0.00 | 64 | 1010.0 |
| 20260505052354 | 79 | 244 | 6.0 | 8.0 | 0.00 | 0.00 | 0.00 | 61 | 1010.0 |
| 20260505051853 | 79 | 264 | 5.0 | 8.0 | 0.00 | 0.00 | 0.00 | 61 | 1010.0 |
| 20260505051353 | 78 | 247 | 6.0 | 8.0 | 0.00 | 0.00 | 0.00 | 63 | 1010.0 |
| 20260505050853 | 77 | 229 | 5.0 | 7.0 | 0.00 | 0.00 | 0.00 | 64 | 1010.0 |
| 20260505050353 | 78 | 283 | 4.0 | 9.0 | 0.00 | 0.00 | 0.00 | 64 | 1010.0 |
| 20260505041422 | 78 | 269 | 5.0 | 10.0 | 0.00 | 0.00 | 0.00 | 62 | 1011.0 |
| 20260505040854 | 79 | 283 | 2.0 | 7.0 | 0.00 | 0.00 | 0.00 | 60 | 1011.0 |
| 20260505035915 | 78 | 279 | 3.0 | 6.0 | 0.00 | 0.00 | 0.00 | 59 | 1011.0 |
| 20260505035356 | 80 | 272 | 5.0 | 6.0 | 0.00 | 0.00 | 0.00 | 57 | 1011.0 |
| 20260505034853 | 81 | 310 | 2.0 | 9.0 | 0.00 | 0.00 | 0.00 | 55 | 1011.0 |
| 20260505034353 | 79 | 309 | 2.0 | 4.0 | 0.00 | 0.00 | 0.00 | 57 | 1011.0 |
| 20260505033853 | 77 | 226 | 2.0 | 8.0 | 0.00 | 0.00 | 0.00 | 61 | 1011.0 |
| 20260505033353 | 78 | 265 | 3.0 | 7.0 | 0.00 | 0.00 | 0.00 | 60 | 1011.0 |
| 20260505032853 | 79 | 282 | 3.0 | 10.0 | 0.00 | 0.00 | 0.00 | 58 | 1011.0 |
| 20260505032354 | 78 | 275 | 3.0 | 3.0 | 0.00 | 0.00 | 0.00 | 57 | 1011.0 |
| 20260505031853 | 79 | 240 | 5.0 | 7.0 | 0.00 | 0.00 | 0.00 | 54 | 1012.0 |
| 20260505031353 | 79 | 169 | 1.0 | 5.0 | 0.00 | 0.00 | 0.00 | 53 | 1012.0 |
| 20260505030854 | 79 | 239 | 4.0 | 7.0 | 0.00 | 0.00 | 0.00 | 55 | 1012.0 |
| 20260505030355 | 79 | 160 | 0.0 | 3.0 | 0.00 | 0.00 | 0.00 | 53 | 1012.0 |
| 20260505025855 | 80 | 77 | 1.0 | 5.0 | 0.00 | 0.00 | 0.00 | 53 | 1012.0 |
| 20260505025355 | 78 | 33 | 3.0 | 7.0 | 0.00 | 0.00 | 0.00 | 54 | 1012.0 |
| 20260505024855 | 80 | 305 | 3.0 | 6.0 | 0.00 | 0.00 | 0.00 | 52 | 1012.0 |
| 20260505024356 | 80 | 289 | 2.0 | 5.0 | 0.00 | 0.00 | 0.00 | 50 | 1012.0 |
| 20260505023853 | 79 | 96 | 3.0 | 5.0 | 0.00 | 0.00 | 0.00 | 50 | 1012.0 |
| 20260505023355 | 79 | 197 | 3.0 | 5.0 | 0.00 | 0.00 | 0.00 | 49 | 1012.0 |
| 20260505022855 | 79 | 175 | 4.0 | 4.0 | 0.00 | 0.00 | 0.00 | 49 | 1012.0 |
| 20260505022356 | 78 | 327 | 5.0 | 5.0 | 0.00 | 0.00 | 0.00 | 50 | 1012.0 |
| 20260505021855 | 79 | 339 | 4.0 | 5.0 | 0.00 | 0.00 | 0.00 | 50 | 1011.0 |
| 20260505021356 | 79 | 227 | 3.0 | 5.0 | 0.00 | 0.00 | 0.00 | 49 | 1012.0 |
| 20260505020854 | 78 | 294 | 2.0 | 5.0 | 0.00 | 0.00 | 0.00 | 51 | 1012.0 |
| 20260505020354 | 77 | 268 | 3.0 | 4.0 | 0.00 | 0.00 | 0.00 | 52 | 1012.0 |
| 20260505015853 | 77 | 273 | 2.0 | 5.0 | 0.00 | 0.00 | 0.00 | 52 | 1012.0 |
| 20260505015353 | 77 | 22 | 5.0 | 5.0 | 0.00 | 0.00 | 0.00 | 52 | 1012.0 |
| 20260505014854 | 77 | 180 | 2.0 | 4.0 | 0.00 | 0.00 | 0.00 | 51 | 1012.0 |
| 20260505014353 | 77 | 9 | 5.0 | 5.0 | 0.00 | 0.00 | 0.00 | 52 | 1012.0 |
| 20260505013853 | 76 | 206 | 3.0 | 5.0 | 0.00 | 0.00 | 0.00 | 51 | 1012.0 |
| 20260505013353 | 77 | 13 | 2.0 | 5.0 | 0.00 | 0.00 | 0.00 | 52 | 1012.0 |
| 20260505012853 | 77 | 214 | 3.0 | 4.0 | 0.00 | 0.00 | 0.00 | 52 | 1012.0 |
| 20260505012353 | 75 | 218 | 2.0 | 4.0 | 0.00 | 0.00 | 0.00 | 52 | 1012.0 |
| 20260505011854 | 74 | 164 | 1.0 | 3.0 | 0.00 | 0.00 | 0.00 | 54 | 1012.0 |
| 20260505011353 | 75 | 32 | 5.0 | 6.0 | 0.00 | 0.00 | 0.00 | 54 | 1012.0 |
| 20260505010854 | 75 | 247 | 1.0 | 6.0 | 0.00 | 0.00 | 0.00 | 53 | 1012.0 |
| 20260505010354 | 74 | 350 | 3.0 | 4.0 | 0.00 | 0.00 | 0.00 | 59 | 1013.0 |
| 20260505005855 | 74 | 57 | 1.0 | 4.0 | 0.00 | 0.00 | 0.00 | 57 | 1013.0 |
| 20260505005356 | 75 | 332 | 3.0 | 7.0 | 0.00 | 0.00 | 0.00 | 57 | 1013.0 |
| 20260505004854 | 74 | 305 | 3.0 | 5.0 | 0.00 | 0.00 | 0.00 | 59 | 1012.0 |
| 20260505004353 | 73 | 356 | 1.0 | 6.0 | 0.00 | 0.00 | 0.00 | 61 | 1012.0 |
| 20260505003853 | 71 | 216 | 1.0 | 5.0 | 0.00 | 0.00 | 0.00 | 63 | 1013.0 |
| 20260505003353 | 72 | 34 | 2.0 | 5.0 | 0.00 | 0.00 | 0.00 | 62 | 1013.0 |
| 20260505002853 | 72 | 301 | 4.0 | 6.0 | 0.00 | 0.00 | 0.00 | 63 | 1013.0 |
| 20260505002353 | 72 | 26 | 2.0 | 5.0 | 0.00 | 0.00 | 0.00 | 63 | 1012.0 |
| 20260505001855 | 72 | 332 | 3.0 | 7.0 | 0.00 | 0.00 | 0.00 | 64 | 1012.0 |
| 20260505001353 | 72 | 17 | 0.0 | 4.0 | 0.00 | 0.00 | 0.00 | 64 | 1013.0 |
| 20260505000853 | 72 | 270 | 4.0 | 8.0 | 0.00 | 0.00 | 0.00 | 64 | 1012.0 |
| 20260505000353 | 72 | 269 | 1.0 | 4.0 | 0.00 | 0.00 | 0.00 | 65 | 1012.0 |
| 20260504235853 | 71 | 216 | 2.0 | 5.0 | 0.00 | 0.00 | 0.00 | 67 | 1012.0 |
| 20260504235355 | 70 | 217 | 3.0 | 5.0 | 0.00 | 0.00 | 0.00 | 69 | 1012.0 |
| 20260504234853 | 70 | 214 | 2.0 | 5.0 | 0.00 | 0.00 | 0.00 | 70 | 1012.0 |
| 20260504234353 | 70 | 262 | 1.0 | 5.0 | 0.00 | 0.00 | 0.00 | 70 | 1012.0 |
| 20260504233853 | 70 | 20 | 2.0 | 6.0 | 0.00 | 0.00 | 0.00 | 71 | 1012.0 |
| 20260504233353 | 70 | 235 | 3.0 | 5.0 | 0.00 | 0.00 | 0.00 | 72 | 1012.0 |
| 20260504232853 | 70 | 265 | 0.0 | 6.0 | 0.00 | 0.00 | 0.00 | 72 | 1012.0 |
| 20260504232353 | 70 | 346 | 2.0 | 4.0 | 0.00 | 0.00 | 0.00 | 73 | 1012.0 |
| 20260504231854 | 69 | 280 | 3.0 | 3.0 | 0.00 | 0.00 | 0.00 | 75 | 1012.0 |
| 20260504231353 | 68 | 221 | 3.0 | 4.0 | 0.00 | 0.00 | 0.00 | 76 | 1012.0 |
| 20260504230854 | 69 | 68 | 1.0 | 4.0 | 0.00 | 0.00 | 0.00 | 75 | 1012.0 |
| 20260504230353 | 68 | 210 | 1.0 | 3.0 | 0.00 | 0.00 | 0.00 | 77 | 1012.0 |
| 20260504225853 | 68 | 318 | 3.0 | 5.0 | 0.00 | 0.00 | 0.00 | 77 | 1012.0 |
| 20260504225354 | 67 | 329 | 1.0 | 3.0 | 0.00 | 0.00 | 0.00 | 79 | 1012.0 |
| 20260504224853 | 66 | 193 | 0.0 | 3.0 | 0.00 | 0.00 | 0.00 | 82 | 1012.0 |
| 20260504224354 | 66 | 152 | 3.0 | 4.0 | 0.00 | 0.00 | 0.00 | 83 | 1012.0 |
| 20260504223854 | 66 | 116 | 1.0 | 4.0 | 0.00 | 0.00 | 0.00 | 84 | 1011.0 |
| 20260504223354 | 65 | 72 | 2.0 | 3.0 | 0.00 | 0.00 | 0.00 | 85 | 1011.0 |
| 20260504222854 | 65 | 114 | 0.0 | 4.0 | 0.00 | 0.00 | 0.00 | 85 | 1011.0 |
| 20260504222353 | 65 | 184 | 0.0 | 3.0 | 0.00 | 0.00 | 0.00 | 85 | 1011.0 |
| 20260504221853 | 64 | 306 | 1.0 | 3.0 | 0.00 | 0.00 | 0.00 | 87 | 1012.0 |
| 20260504221353 | 64 | 170 | 0.0 | 2.0 | 0.00 | 0.00 | 0.00 | 87 | 1011.0 |
| 20260504220853 | 64 | 295 | 0.0 | 3.0 | 0.00 | 0.00 | 0.00 | 87 | 1011.0 |
| 20260504220354 | 64 | 202 | 1.0 | 3.0 | 0.00 | 0.00 | 0.00 | 87 | 1011.0 |
| 20260504215853 | 64 | 218 | 2.0 | 3.0 | 0.00 | 0.00 | 0.00 | 86 | 1011.0 |
| 20260504215353 | 64 | 265 | 0.0 | 4.0 | 0.00 | 0.00 | 0.00 | 86 | 1011.0 |
| 20260504214853 | 64 | 354 | 3.0 | 5.0 | 0.00 | 0.00 | 0.00 | 85 | 1011.0 |
| 20260504214353 | 64 | 336 | 1.0 | 3.0 | 0.00 | 0.00 | 0.00 | 85 | 1011.0 |
| 20260504213853 | 64 | 337 | 0.0 | 2.0 | 0.00 | 0.00 | 0.00 | 85 | 1011.0 |
| 20260504213354 | 64 | 47 | 0.0 | 2.0 | 0.00 | 0.00 | 0.00 | 85 | 1011.0 |
| 20260504212854 | 64 | 290 | 1.0 | 2.0 | 0.00 | 0.00 | 0.00 | 85 | 1011.0 |
| 20260504212353 | 65 | 159 | 0.0 | 3.0 | 0.00 | 0.00 | 0.00 | 83 | 1011.0 |
| 20260504211853 | 65 | 226 | 1.0 | 3.0 | 0.00 | 0.00 | 0.00 | 83 | 1011.0 |
| 20260504211354 | 65 | 294 | 2.0 | 3.0 | 0.00 | 0.00 | 0.00 | 82 | 1011.0 |
| 20260504210855 | 65 | 115 | 1.0 | 3.0 | 0.00 | 0.00 | 0.00 | 82 | 1011.0 |
| 20260504210354 | 65 | 303 | 0.0 | 3.0 | 0.00 | 0.00 | 0.00 | 82 | 1010.0 |
| 20260504205853 | 65 | 14 | 0.0 | 2.0 | 0.00 | 0.00 | 0.00 | 82 | 1010.0 |
| 20260504205353 | 64 | 280 | 2.0 | 2.0 | 0.00 | 0.00 | 0.00 | 83 | 1010.0 |
| 20260504204854 | 64 | 275 | 2.0 | 2.0 | 0.00 | 0.00 | 0.00 | 85 | 1010.0 |
| 20260504204353 | 64 | 220 | 1.0 | 4.0 | 0.00 | 0.00 | 0.00 | 85 | 1010.0 |
| 20260504203854 | 65 | 197 | 1.0 | 3.0 | 0.00 | 0.00 | 0.00 | 83 | 1010.0 |
| 20260504203353 | 65 | 359 | 1.0 | 3.0 | 0.00 | 0.00 | 0.00 | 83 | 1010.0 |
| 20260504202854 | 65 | 236 | 1.0 | 3.0 | 0.00 | 0.00 | 0.00 | 83 | 1010.0 |
| 20260504202354 | 65 | 317 | 1.0 | 3.0 | 0.00 | 0.00 | 0.00 | 84 | 1010.0 |
| 20260504201854 | 65 | 231 | 0.0 | 3.0 | 0.00 | 0.00 | 0.00 | 87 | 1010.0 |
| 20260504201354 | 65 | 62 | 0.0 | 3.0 | 0.00 | 0.00 | 0.00 | 88 | 1010.0 |
| 20260504200853 | 65 | 268 | 1.0 | 3.0 | 0.00 | 0.00 | 0.00 | 90 | 1010.0 |
| 20260504200353 | 65 | 230 | 3.0 | 4.0 | 0.00 | 0.00 | 0.00 | 92 | 1009.0 |
| 20260504195854 | 65 | 295 | 2.0 | 3.0 | 0.00 | 0.00 | 0.00 | 93 | 1009.0 |
| 20260504195354 | 66 | 232 | 2.0 | 4.0 | 0.00 | 0.00 | 0.00 | 92 | 1010.0 |
| 20260504194853 | 66 | 249 | 0.0 | 3.0 | 0.00 | 0.00 | 0.00 | 92 | 1009.0 |
| 20260504194355 | 66 | 232 | 0.0 | 2.0 | 0.00 | 0.00 | 0.00 | 93 | 1009.0 |
| 20260504193853 | 66 | 71 | 2.0 | 4.0 | 0.00 | 0.00 | 0.00 | 94 | 1009.0 |
| 20260504193353 | 66 | 296 | 2.0 | 3.0 | 0.00 | 0.00 | 0.00 | 95 | 1009.0 |
| 20260504192854 | 66 | 217 | 1.0 | 3.0 | 0.00 | 0.00 | 0.00 | 95 | 1009.0 |
| 20260504192354 | 66 | 302 | 2.0 | 2.0 | 0.00 | 0.00 | 0.00 | 94 | 1009.0 |
| 20260504191853 | 66 | 359 | 2.0 | 4.0 | 0.00 | 0.00 | 0.00 | 93 | 1009.0 |
| 20260504191354 | 66 | 177 | 0.0 | 3.0 | 0.00 | 0.00 | 0.00 | 96 | 1010.0 |
| 20260504190853 | 66 | 289 | 0.0 | 3.0 | 0.00 | 0.00 | 0.00 | 96 | 1010.0 |
| 20260504190354 | 66 | 324 | 2.0 | 3.0 | 0.00 | 0.00 | 0.00 | 97 | 1009.0 |
| 20260504185853 | 66 | 299 | 0.0 | 3.0 | 0.00 | 0.00 | 0.00 | 97 | 1009.0 |
| 20260504185353 | 66 | 222 | 2.0 | 3.0 | 0.00 | 0.00 | 0.00 | 97 | 1009.0 |
| 20260504184854 | 66 | 152 | 2.0 | 3.0 | 0.00 | 0.00 | 0.00 | 97 | 1009.0 |
| 20260504184353 | 66 | 245 | 2.0 | 3.0 | 0.00 | 0.00 | 0.00 | 97 | 1009.0 |
| 20260504183854 | 66 | 253 | 1.0 | 3.0 | 0.00 | 0.00 | 0.00 | 98 | 1009.0 |
| 20260504183354 | 66 | 108 | 1.0 | 3.0 | 0.00 | 0.00 | 0.00 | 98 | 1009.0 |
| 20260504182854 | 66 | 18 | 2.0 | 5.0 | 0.00 | 0.00 | 0.00 | 98 | 1009.0 |
| 20260504182353 | 66 | 171 | 3.0 | 4.0 | 0.00 | 0.00 | 0.00 | 98 | 1009.0 |
| 20260504181854 | 66 | 31 | 1.0 | 3.0 | 0.00 | 0.00 | 0.00 | 98 | 1009.0 |
| 20260504181354 | 66 | 7 | 3.0 | 4.0 | 0.00 | 0.00 | 0.00 | 97 | 1009.0 |
| 20260504180854 | 66 | 296 | 1.0 | 3.0 | 0.00 | 0.00 | 0.00 | 97 | 1009.0 |
| 20260504180354 | 66 | 88 | 2.0 | 3.0 | 0.00 | 0.00 | 0.00 | 98 | 1009.0 |
| 20260504175854 | 66 | 137 | 2.0 | 3.0 | 0.00 | 0.00 | 0.00 | 97 | 1009.0 |
| 20260504175355 | 66 | 107 | 2.0 | 3.0 | 0.00 | 0.00 | 0.00 | 98 | 1009.0 |
| 20260504174853 | 66 | 252 | 1.0 | 4.0 | 0.00 | 0.00 | 0.00 | 98 | 1009.0 |
| 20260504174353 | 66 | 171 | 1.0 | 4.0 | 0.00 | 0.00 | 0.00 | 97 | 1009.0 |
| 20260504173854 | 66 | 271 | 2.0 | 5.0 | 0.00 | 0.00 | 0.00 | 97 | 1009.0 |
| 20260504172945 | 66 | 175 | 1.0 | 5.0 | 0.00 | 0.00 | 0.00 | 97 | 1010.0 |
| 20260504172354 | 66 | 21 | 1.0 | 4.0 | 0.00 | 0.00 | 0.00 | 97 | 1010.0 |
| 20260504171853 | 66 | 112 | 1.0 | 4.0 | 0.00 | 0.00 | 0.00 | 96 | 1010.0 |
| 20260504171354 | 66 | 254 | 2.0 | 4.0 | 0.00 | 0.00 | 0.00 | 96 | 1010.0 |
| 20260504170854 | 66 | 241 | 2.0 | 5.0 | 0.00 | 0.00 | 0.00 | 96 | 1010.0 |
| 20260504170354 | 66 | 238 | 3.0 | 6.0 | 0.00 | 0.00 | 0.00 | 97 | 1009.0 |
| 20260504160354 | 68 | 327 | 0.0 | 3.0 | 0.00 | 0.00 | 0.00 | 93 | 1009.0 |
| 20260504150853 | 68 | 225 | 2.0 | 3.0 | 0.00 | 0.00 | 0.00 | 92 | 1010.0 |
| 20260504150353 | 68 | 241 | 2.0 | 3.0 | 0.00 | 0.00 | 0.00 | 91 | 1010.0 |
| 20260504140853 | 68 | 240 | 4.0 | 4.0 | 0.00 | 0.00 | 0.00 | 91 | 1010.0 |
| 20260504140354 | 69 | 249 | 2.0 | 3.0 | 0.00 | 0.00 | 0.00 | 90 | 1010.0 |
| 20260504130354 | 69 | 260 | 2.0 | 4.0 | 0.00 | 0.00 | 0.00 | 91 | 1009.0 |
| 20260504110353 | 73 | 239 | 1.0 | 5.0 | 0.00 | 0.00 | 0.00 | 80 | 1009.0 |
| 20260504100353 | 75 | 236 | 5.0 | 6.0 | 0.00 | 0.00 | 0.00 | 77 | 1009.0 |
| 20260504081854 | 78 | 265 | 3.0 | 7.0 | 0.00 | 0.00 | 0.00 | 67 | 1008.0 |
| 20260504081354 | 79 | 292 | 7.0 | 12.0 | 0.00 | 0.00 | 0.00 | 67 | 1008.0 |
| 20260504080854 | 78 | 281 | 3.0 | 7.0 | 0.00 | 0.00 | 0.00 | 68 | 1008.0 |